Simultaneous Nadir Overpasses (SNOs) Predictions

Prediction of SNOs between GOES-16 and METOP-B Satellite Orbit:

Table of predicted SNOs for the next 14.0 days since TLE Epoch: 7/26/2019
Index Date Time (GOES-16) GOES-16 Lat,Lon METOP-B Lat,Lon Distance(km) Time Diff (sec)
1 07/27/2019 14:43:58 0.01, -75.20 0.70, -78.15 336.91 80
2 07/28/2019 14:20:40 0.01, -75.22 -0.47, -73.17 233.33 80
3 07/30/2019 02:42:19 -0.01, -75.23 -0.60, -77.76 288.92 80
4 07/31/2019 02:19:01 -0.01, -75.24 0.57, -72.77 281.41 80
5 08/01/2019 14:40:32 0.01, -75.26 0.47, -77.33 235.55 80
6 08/02/2019 14:17:12 0.00, -75.28 -0.64, -72.33 335.04 80
7 08/04/2019 02:38:53 -0.01, -75.30 -0.38, -76.93 186.24 80
8 08/05/2019 02:15:33 -0.00, -75.32 0.73, -71.94 384.86 80
9 08/06/2019 14:37:05 0.01, -75.35 0.25, -76.51 130.65 80
10 08/07/2019 14:13:46 0.00, -75.38 -0.87, -71.51 440.84 80
11 08/09/2019 02:35:26 -0.01, -75.41 -0.16, -76.11 79.23 80




NCC Satellite Simultaneous Nadir Overpasses (SNOs) Prediction Service
